FW2929 Weather Reports


time (UTC)temp
C
wind
direction
speed
KPH
gust
KPH
rain 1hr
cm
rain 24hr
cm
rain mn
cm
humidity
%
barometer
mb
20260507132329 14 69 0.0 0.0 0.00 0.00 0.00 66 1015.1
20260507131841 14 65 0.0 0.0 0.00 0.00 0.00 66 1015.1
20260507131329 14 65 0.0 0.0 0.00 0.00 0.00 67 1015.1
20260507130841 14 65 0.0 0.0 0.00 0.00 0.00 68 1015.1
20260507130355 14 65 0.0 0.0 0.00 0.00 0.00 67 1015.2
20260507125843 14 65 0.0 0.0 0.00 0.00 0.00 65 1015.1
20260507125335 13 65 0.0 0.0 0.00 0.00 0.00 66 1015.1
20260507124827 13 65 0.0 0.0 0.00 0.00 0.00 65 1015.1
20260507124346 13 65 0.0 0.0 0.00 0.00 0.00 67 1015.1
20260507123836 13 65 0.0 0.0 0.00 0.00 0.00 67 1015.1
20260507123346 13 67 0.0 0.0 0.00 0.00 0.00 67 1015.1
20260507122835 13 360 0.0 0.0 0.00 0.00 0.00 69 1015.1
20260507122346 13 360 0.0 0.0 0.00 0.00 0.00 67 1015.1
20260507121837 13 360 0.0 0.0 0.00 0.00 0.00 67 1015.2
20260507121326 13 360 0.0 0.0 0.00 0.00 0.00 66 1015.1
20260507120906 13 360 0.0 0.0 0.00 0.00 0.00 63 1015.1
20260507120336 13 360 0.0 3.2 0.00 0.00 0.00 63 1015.1
20260507115843 13 360 0.0 3.2 0.00 0.00 0.00 63 1015.2
20260507115359 13 360 0.0 4.8 0.00 0.00 0.00 64 1015.2
20260507114859 13 360 0.0 3.2 0.00 0.00 0.00 64 1015.2
20260507114356 13 360 1.6 3.2 0.00 0.00 0.00 63 1015.1
20260507113853 14 360 1.6 3.2 0.00 0.00 0.00 63 1015.2
20260507113344 14 360 0.0 3.2 0.00 0.00 0.00 64 1015.1
20260507112900 14 360 0.0 3.2 0.00 0.00 0.00 66 1015.2
20260507112329 14 360 0.0 3.2 0.00 0.00 0.00 64 1015.2
20260507111835 14 360 0.0 4.8 0.00 0.00 0.00 63 1015.2
20260507111344 15 360 0.0 4.8 0.00 0.00 0.00 62 1015.2
20260507110902 15 360 0.0 1.6 0.00 0.00 0.00 64 1015.2
20260507110339 15 66 0.0 4.8 0.00 0.00 0.00 65 1015.2
20260507105848 15 67 1.6 4.8 0.00 0.00 0.00 59 1015.3
20260507105356 15 80 0.0 1.6 0.00 0.00 0.00 62 1015.3
20260507104841 15 360 0.0 1.6 0.00 0.00 0.00 63 1015.3
20260507104351 15 80 0.0 6.4 0.00 0.00 0.00 64 1015.3
20260507103840 15 80 1.6 6.4 0.00 0.00 0.00 60 1015.3
20260507103332 15 75 0.0 6.4 0.00 0.00 0.00 63 1015.3
20260507102840 15 360 0.0 6.4 0.00 0.00 0.00 62 1015.5
20260507102330 15 360 3.2 6.4 0.00 0.00 0.00 61 1015.4
20260507101840 15 360 0.0 6.4 0.00 0.00 0.00 64 1015.5
20260507101329 15 360 0.0 6.4 0.00 0.00 0.00 64 1015.4
20260507100835 15 360 1.6 8.0 0.00 0.00 0.00 61 1015.5
20260507100345 15 360 3.2 8.0 0.00 0.00 0.00 60 1015.3
20260507095850 15 360 0.0 0.0 0.00 0.00 0.00 64 1015.3
20260507095407 15 196 0.0 3.2 0.00 0.00 0.00 65 1015.2
20260507094830 15 360 0.0 1.6 0.00 0.00 0.00 62 1015.3
20260507094339 14 360 0.0 3.2 0.00 0.00 0.00 61 1015.3
20260507093830 15 198 0.0 3.2 0.00 0.00 0.00 62 1015.2
20260507093407 15 186 1.6 3.2 0.00 0.00 0.00 62 1015.3
20260507092835 15 232 0.0 1.6 0.00 0.00 0.00 62 1015.1
20260507092346 15 232 0.0 1.6 0.00 0.00 0.00 67 1015.2
20260507091905 14 360 0.0 3.2 0.00 0.00 0.00 69 1015.1
20260507091335 14 360 0.0 3.2 0.00 0.00 0.00 63 1015.1
20260507090846 14 296 0.0 0.0 0.00 0.00 0.00 67 1015.0
20260507090338 14 57 0.0 0.0 0.00 0.00 0.00 67 1015.0
20260507085841 13 360 0.0 0.0 0.00 0.00 0.00 67 1015.0
20260507085359 13 360 0.0 3.2 0.00 0.00 0.00 69 1015.0
20260507084828 13 360 0.0 4.8 0.00 0.00 0.00 70 1014.9
20260507084339 13 360 3.2 4.8 0.00 0.00 0.00 65 1014.9
20260507083830 13 360 0.0 3.2 0.00 0.00 0.00 66 1014.9
20260507083344 13 360 0.0 3.2 0.00 0.00 0.00 63 1014.9
20260507082832 13 360 0.0 0.0 0.00 0.00 0.00 68 1014.8
20260507082343 13 360 0.0 0.0 0.00 0.00 0.00 68 1014.9
20260507081832 13 360 0.0 0.0 0.00 0.00 0.00 68 1014.9
20260507081335 13 360 0.0 0.0 0.00 0.00 0.00 70 1014.9
20260507080843 13 360 0.0 0.0 0.00 0.00 0.00 71 1014.9
20260507080333 12 360 0.0 1.6 0.00 0.00 0.00 72 1014.8
20260507075838 12 360 0.0 1.6 0.00 0.00 0.00 71 1014.8
20260507075335 12 56 0.0 1.6 0.00 0.00 0.00 73 1014.8
20260507074845 12 360 0.0 1.6 0.00 0.00 0.00 74 1014.7
20260507074355 12 360 0.0 0.0 0.00 0.00 0.00 75 1014.8
20260507073838 11 360 0.0 1.6 0.00 0.00 0.00 78 1014.7
20260507073349 11 360 0.0 0.0 0.00 0.00 0.00 81 1014.7
20260507072831 11 360 0.0 0.0 0.00 0.00 0.00 83 1014.6
20260507072340 11 360 0.0 0.0 0.00 0.00 0.00 82 1014.6
20260507071837 11 360 0.0 0.0 0.00 0.00 0.00 87 1014.6
20260507071347 11 360 0.0 0.0 0.00 0.00 0.00 86 1014.5
20260507070837 11 360 0.0 1.6 0.00 0.00 0.00 88 1014.5
20260507070345 11 360 0.0 0.0 0.00 0.00 0.00 90 1014.4
20260507065831 10 360 0.0 0.0 0.00 0.00 0.00 90 1014.5
20260507065340 10 57 0.0 0.0 0.00 0.00 0.00 91 1014.4
20260507064859 10 57 0.0 0.0 0.00 0.00 0.00 92 1014.5
20260507064348 10 57 0.0 0.0 0.00 0.00 0.00 92 1014.4
20260507063836 10 57 0.0 0.0 0.00 0.00 0.00 92 1014.3
20260507063346 10 57 0.0 0.0 0.00 0.00 0.00 93 1014.3
20260507062856 10 57 0.0 0.0 0.00 0.00 0.00 93 1014.3
20260507062331 10 57 0.0 0.0 0.00 0.00 0.00 93 1014.3
20260507061839 10 57 0.0 0.0 0.00 0.00 0.00 94 1014.2
20260507061346 9 57 0.0 0.0 0.00 0.00 0.00 94 1014.2
20260507060836 9 57 0.0 0.0 0.00 0.00 0.00 94 1014.2
20260507060344 9 57 0.0 0.0 0.00 0.00 0.00 94 1014.1
20260507055847 9 57 0.0 0.0 0.00 0.00 0.00 94 1014.1
20260507055336 9 57 0.0 0.0 0.00 0.00 0.00 94 1014.0
20260507054839 9 57 0.0 0.0 0.00 0.00 0.00 93 1014.0
20260507054356 9 57 0.0 0.0 0.00 0.00 0.00 94 1014.0
20260507053843 8 57 0.0 0.0 0.00 0.00 0.00 94 1013.9
20260507053332 8 57 0.0 0.0 0.00 0.00 0.00 93 1013.8
20260507052838 8 57 0.0 0.0 0.00 0.00 0.00 93 1013.9
20260507052328 8 57 0.0 0.0 0.00 0.00 0.00 93 1013.7
20260507051838 8 57 0.0 0.0 0.00 0.00 0.00 93 1013.6
20260507051328 8 57 0.0 0.0 0.00 0.00 0.00 93 1013.7
20260507050837 8 57 0.0 0.0 0.00 0.00 0.00 93 1013.5
20260507050335 8 57 0.0 0.0 0.00 0.00 0.00 93 1013.5
20260507045844 8 57 0.0 0.0 0.00 0.00 0.00 93 1013.5
20260507045403 8 57 0.0 0.0 0.00 0.00 0.00 93 1013.4
20260507044901 8 57 0.0 0.0 0.00 0.00 0.00 93 1013.4
20260507044329 8 57 0.0 0.0 0.00 0.00 0.00 93 1013.4
20260507043840 8 57 0.0 0.0 0.00 0.00 0.00 93 1013.4
20260507043348 8 56 0.0 0.0 0.00 0.00 0.00 93 1013.4
20260507042837 8 360 0.0 0.0 0.00 0.00 0.00 93 1013.4
20260507042328 8 360 0.0 0.0 0.00 0.00 0.00 93 1013.4
20260507041841 8 360 0.0 0.0 0.00 0.00 0.00 93 1013.4
20260507041352 8 360 0.0 0.0 0.00 0.00 0.00 93 1013.3
20260507040843 8 360 0.0 0.0 0.00 0.00 0.00 93 1013.3
20260507040338 8 360 0.0 0.0 0.00 0.00 0.00 93 1013.3
20260507035828 8 360 0.0 0.0 0.00 0.00 0.00 93 1013.2
20260507035336 8 360 0.0 0.0 0.00 0.00 0.00 93 1013.2
20260507034850 8 360 0.0 0.0 0.00 0.00 0.00 93 1013.2
20260507034343 8 360 0.0 0.0 0.00 0.00 0.00 93 1013.2
20260507033835 8 360 0.0 0.0 0.00 0.00 0.00 93 1013.2
20260507033347 8 360 0.0 0.0 0.00 0.00 0.00 93 1013.1
20260507032844 8 360 0.0 0.0 0.00 0.00 0.00 93 1013.1
20260507032354 8 360 0.0 0.0 0.00 0.00 0.00 93 1013.1
20260507031840 8 360 0.0 0.0 0.00 0.00 0.00 93 1013.0
20260507031400 8 360 0.0 0.0 0.00 0.00 0.00 93 1013.0
20260507030830 8 360 0.0 0.0 0.00 0.00 0.00 93 1013.0
20260507030344 8 360 0.0 0.0 0.00 0.00 0.00 93 1012.9
20260507025832 8 360 0.0 0.0 0.00 0.00 0.00 93 1013.0
20260507025347 8 360 0.0 0.0 0.00 0.00 0.00 93 1012.9
20260507024843 8 360 0.0 0.0 0.00 0.00 0.00 93 1012.9
20260507024337 8 360 0.0 0.0 0.00 0.00 0.00 93 1012.8
20260507023831 8 360 0.0 0.0 0.00 0.00 0.00 93 1012.8
20260507023342 8 360 0.0 0.0 0.00 0.00 0.00 93 1012.9
20260507022842 8 360 0.0 0.0 0.00 0.00 0.00 93 1012.9
20260507022333 8 360 0.0 0.0 0.00 0.00 0.00 93 1012.9
20260507021846 8 360 0.0 0.0 0.00 0.00 0.00 93 1012.9
20260507021341 8 360 0.0 0.0 0.00 0.00 0.00 93 1012.8
20260507020903 8 360 0.0 0.0 0.00 0.00 0.00 92 1012.7
20260507020402 8 360 0.0 0.0 0.00 0.00 0.00 93 1012.6
20260507015903 8 360 0.0 0.0 0.00 0.00 0.00 92 1012.6
20260507015359 8 360 0.0 0.0 0.00 0.00 0.00 92 1012.6
20260507014830 8 360 0.0 0.0 0.00 0.00 0.00 92 1012.4
20260507014343 8 360 0.0 0.0 0.00 0.00 0.00 92 1012.6
20260507013838 8 360 0.0 0.0 0.00 0.00 0.00 92 1012.6
20260507013332 8 360 0.0 0.0 0.00 0.00 0.00 92 1012.5
20260507012844 8 360 0.0 0.0 0.00 0.00 0.00 92 1012.5
20260507012407 8 360 0.0 0.0 0.00 0.00 0.00 92 1012.5
20260507011837 8 360 0.0 0.0 0.00 0.00 0.00 92 1012.5
20260507011344 8 360 0.0 0.0 0.00 0.00 0.00 92 1012.5
20260507010836 8 360 0.0 0.0 0.00 0.00 0.00 92 1012.4
20260507010357 8 360 0.0 0.0 0.00 0.00 0.00 92 1012.4
20260507005846 8 360 0.0 0.0 0.00 0.00 0.00 92 1012.4
20260507005338 8 360 0.0 0.0 0.00 0.00 0.00 92 1012.4
20260507004831 8 360 0.0 0.0 0.00 0.00 0.00 92 1012.4
20260507004345 8 360 0.0 0.0 0.00 0.00 0.00 92 1012.5
20260507003839 7 360 0.0 0.0 0.00 0.00 0.00 93 1012.5
20260507003331 7 360 0.0 0.0 0.00 0.00 0.00 92 1012.5
20260507002839 7 360 0.0 0.0 0.00 0.00 0.00 92 1012.5
20260507002333 7 360 0.0 0.0 0.00 0.00 0.00 92 1012.5
20260507001846 7 360 0.0 0.0 0.00 0.00 0.00 92 1012.5
20260507001338 7 360 0.0 0.0 0.00 0.00 0.00 92 1012.4
20260507000830 7 360 0.0 0.0 0.00 0.00 0.00 91 1012.5
20260507000350 7 360 0.0 0.0 0.00 0.00 0.00 90 1012.4
20260506235840 7 360 0.0 0.0 0.00 0.00 0.00 90 1012.4
20260506235332 7 360 0.0 0.0 0.00 0.00 0.00 90 1012.4
20260506234841 7 360 0.0 0.0 0.00 0.00 0.00 90 1012.5
20260506234333 7 360 0.0 0.0 0.00 0.00 0.00 90 1012.5
20260506233845 7 360 0.0 0.0 0.00 0.00 0.00 90 1012.4
20260506233338 7 360 0.0 0.0 0.00 0.00 0.00 90 1012.3
20260506232828 7 360 0.0 0.0 0.00 0.00 0.00 90 1012.3
20260506232339 7 360 0.0 0.0 0.00 0.00 0.00 89 1012.2
20260506231830 7 360 0.0 0.0 0.00 0.00 0.00 89 1012.2
20260506231336 7 360 0.0 0.0 0.00 0.00 0.00 89 1012.2
20260506230845 8 360 0.0 0.0 0.00 0.00 0.00 89 1012.1
20260506230349 8 360 0.0 0.0 0.00 0.00 0.00 89 1012.1
20260506225844 8 360 0.0 0.0 0.00 0.00 0.00 89 1012.2
20260506225332 8 360 0.0 0.0 0.00 0.00 0.00 89 1012.1
20260506224841 8 360 0.0 0.0 0.00 0.00 0.00 89 1012.1
20260506224330 8 360 0.0 0.0 0.00 0.00 0.00 89 1012.1
20260506223908 8 360 0.0 0.0 0.00 0.00 0.00 89 1012.1
20260506223356 8 360 0.0 0.0 0.00 0.00 0.00 89 1012.0
20260506222838 8 360 0.0 0.0 0.00 0.00 0.00 89 1011.9
20260506222329 8 360 0.0 0.0 0.00 0.00 0.00 89 1011.8
20260506221837 8 360 0.0 0.0 0.00 0.00 0.00 88 1011.9
20260506221355 8 360 0.0 0.0 0.00 0.00 0.00 88 1011.8
20260506220845 8 360 0.0 0.0 0.00 0.00 0.00 88 1011.8
20260506220403 8 360 0.0 0.0 0.00 0.00 0.00 88 1011.7
20260506215830 8 360 0.0 0.0 0.00 0.00 0.00 87 1011.6
20260506215337 8 360 0.0 0.0 0.00 0.00 0.00 87 1011.6
20260506214846 8 360 0.0 0.0 0.00 0.00 0.00 87 1011.6
20260506214336 8 360 0.0 0.0 0.00 0.00 0.00 86 1011.7
20260506213847 8 360 0.0 0.0 0.00 0.00 0.00 86 1011.6
20260506213338 8 360 0.0 0.0 0.00 0.00 0.00 86 1011.6
20260506212835 9 360 0.0 0.0 0.00 0.00 0.00 86 1011.6
20260506212344 9 360 0.0 0.0 0.00 0.00 0.00 85 1011.6
20260506211835 9 360 0.0 0.0 0.00 0.00 0.00 85 1011.4
20260506211342 9 360 0.0 0.0 0.00 0.00 0.00 85 1011.4
20260506210832 9 360 0.0 0.0 0.00 0.00 0.00 85 1011.3
20260506210342 9 360 0.0 0.0 0.00 0.00 0.00 85 1011.3
20260506205831 9 360 0.0 0.0 0.00 0.00 0.00 85 1011.3
20260506205340 9 360 0.0 1.6 0.00 0.00 0.00 85 1011.3
20260506204831 9 360 0.0 0.0 0.00 0.00 0.00 84 1011.3
20260506204341 9 360 0.0 0.0 0.00 0.00 0.00 84 1011.2
20260506203831 9 360 0.0 0.0 0.00 0.00 0.00 83 1011.3
20260506203340 9 360 0.0 0.0 0.00 0.00 0.00 83 1011.3
20260506202846 9 360 0.0 0.0 0.00 0.00 0.00 82 1011.2
20260506202405 10 360 0.0 0.0 0.00 0.00 0.00 82 1011.1
20260506201846 10 360 0.0 0.0 0.00 0.00 0.00 81 1011.1
20260506201334 10 360 0.0 0.0 0.00 0.00 0.00 81 1011.0
20260506200843 10 360 0.0 0.0 0.00 0.00 0.00 81 1011.0
20260506200405 10 360 0.0 0.0 0.00 0.00 0.00 80 1011.0
20260506195838 10 360 0.0 0.0 0.00 0.00 0.00 80 1010.9
20260506195354 10 360 0.0 0.0 0.00 0.00 0.00 79 1010.9
20260506194847 10 360 0.0 1.6 0.00 0.00 0.00 79 1010.9
20260506194339 10 360 0.0 1.6 0.00 0.00 0.00 78 1010.9
20260506193849 10 360 0.0 0.0 0.00 0.00 0.00 78 1010.9
20260506193341 11 360 0.0 0.0 0.00 0.00 0.00 77 1010.8
20260506192828 11 360 0.0 0.0 0.00 0.00 0.00 77 1010.8
20260506192338 11 360 0.0 0.0 0.00 0.00 0.00 77 1010.7
20260506191846 11 360 0.0 0.0 0.00 0.00 0.00 77 1010.7
20260506191337 11 360 0.0 0.0 0.00 0.00 0.00 76 1010.7
20260506190828 11 360 0.0 0.0 0.00 0.00 0.00 76 1010.6
20260506190340 11 360 0.0 0.0 0.00 0.00 0.00 75 1010.5
20260506185835 11 360 0.0 0.0 0.00 0.00 0.00 75 1010.5
20260506185356 11 360 0.0 0.0 0.00 0.00 0.00 74 1010.4
20260506184827 11 360 0.0 0.0 0.00 0.00 0.00 73 1010.4
20260506184342 12 360 0.0 0.0 0.00 0.00 0.00 73 1010.4
20260506183836 12 360 0.0 0.0 0.00 0.00 0.00 73 1010.4
20260506183336 12 360 0.0 3.2 0.00 0.00 0.00 72 1010.4
20260506182847 12 360 0.0 3.2 0.00 0.00 0.00 73 1010.3
20260506182404 12 360 0.0 3.2 0.00 0.00 0.00 72 1010.2
20260506181836 12 360 0.0 1.6 0.00 0.00 0.00 72 1010.2
20260506181347 12 360 0.0 0.0 0.00 0.00 0.00 72 1010.2
20260506180858 12 360 0.0 0.0 0.00 0.00 0.00 72 1010.0
20260506180343 12 360 0.0 0.0 0.00 0.00 0.00 72 1010.0
20260506175900 12 360 0.0 0.0 0.00 0.00 0.00 72 1009.8
20260506175331 12 360 0.0 0.0 0.00 0.00 0.00 72 1009.8
20260506174841 13 360 0.0 0.0 0.00 0.00 0.00 71 1009.8
20260506174334 13 360 0.0 0.0 0.00 0.00 0.00 71 1009.7
20260506173852 13 360 0.0 0.0 0.00 0.00 0.00 71 1009.6
20260506173342 13 360 0.0 0.0 0.00 0.00 0.00 71 1009.6
20260506172856 13 360 0.0 0.0 0.00 0.00 0.00 70 1009.5
20260506172328 13 360 0.0 0.0 0.00 0.00 0.00 70 1009.5
20260506171841 13 360 0.0 0.0 0.00 0.00 0.00 69 1009.5
20260506171334 13 360 0.0 3.2 0.00 0.00 0.00 68 1009.5
20260506170847 13 360 0.0 3.2 0.00 0.00 0.00 68 1009.4
20260506170340 14 360 0.0 4.8 0.00 0.00 0.00 67 1009.3
20260506165830 14 360 0.0 4.8 0.00 0.00 0.00 68 1009.5
20260506165342 14 360 0.0 3.2 0.00 0.00 0.00 66 1009.4
20260506164835 15 360 0.0 1.6 0.00 0.00 0.00 68 1009.3
20260506164328 15 360 0.0 1.6 0.00 0.00 0.00 66 1009.4
20260506163835 15 360 0.0 0.0 0.00 0.00 0.00 67 1009.4
20260506163346 15 346 0.0 0.0 0.00 0.00 0.00 67 1009.4
20260506162835 15 348 0.0 0.0 0.00 0.00 0.00 67 1009.2
20260506162328 15 348 0.0 0.0 0.00 0.00 0.00 66 1009.1
20260506161838 15 31 0.0 4.8 0.00 0.00 0.00 66 1009.3
20260506161357 15 360 0.0 4.8 0.00 0.00 0.00 68 1009.2
20260506160828 14 360 0.0 1.6 0.00 0.00 0.00 68 1009.2
20260506160339 14 360 0.0 1.6 0.00 0.00 0.00 70 1009.3
20260506155844 14 360 0.0 0.0 0.00 0.00 0.00 71 1009.2
20260506155405 14 360 0.0 0.0 0.00 0.00 0.00 70 1009.2
20260506154836 14 360 0.0 0.0 0.00 0.00 0.00 70 1009.2
20260506154358 14 360 0.0 0.0 0.00 0.00 0.00 70 1009.2
20260506153828 13 360 0.0 0.0 0.00 0.00 0.00 71 1009.1
20260506153340 13 360 0.0 0.0 0.00 0.00 0.00 71 1009.1
20260506152829 13 360 0.0 0.0 0.00 0.00 0.00 71 1009.2
20260506152343 13 360 0.0 0.0 0.00 0.00 0.00 71 1009.2
20260506151831 13 360 0.0 0.0 0.00 0.00 0.00 71 1009.2
20260506151342 13 360 0.0 0.0 0.00 0.00 0.00 70 1009.1
20260506150833 13 360 0.0 0.0 0.00 0.00 0.00 71 1009.2
20260506150345 13 360 0.0 0.0 0.00 0.00 0.00 70 1009.1
20260506145849 13 360 0.0 0.0 0.00 0.00 0.00 73 1009.1
20260506145339 13 360 0.0 0.0 0.00 0.00 0.00 73 1009.2
20260506144851 13 360 0.0 0.0 0.00 0.00 0.00 72 1009.1
20260506144337 13 360 0.0 3.2 0.00 0.00 0.00 72 1009.2
20260506143846 13 360 0.0 3.2 0.00 0.00 0.00 73 1009.2
20260506143406 13 360 0.0 0.0 0.00 0.00 0.00 74 1009.1
20260506142834 13 360 0.0 0.0 0.00 0.00 0.00 73 1009.1
20260506142345 13 360 0.0 0.0 0.00 0.00 0.00 73 1009.2
20260506141904 13 360 0.0 4.8 0.00 0.00 0.00 73 1009.2
20260506141341 13 360 0.0 4.8 0.00 0.00 0.00 73 1009.2
20260506140832 13 360 0.0 3.2 0.00 0.00 0.00 72 1009.2
20260506140339 14 360 0.0 3.2 0.00 0.00 0.00 71 1009.2
20260506135847 14 360 0.0 3.2 0.00 0.00 0.00 70 1009.2
20260506135337 14 360 0.0 1.6 0.00 0.00 0.00 70 1009.3
20260506134828 14 360 0.0 3.2 0.00 0.00 0.00 70 1009.2
20260506134335 14 360 0.0 3.2 0.00 0.00 0.00 69 1009.1
20260506133828 14 360 0.0 1.6 0.00 0.00 0.00 69 1009.2
20260506133341 14 360 0.0 0.0 0.00 0.00 0.00 69 1009.2
20260506132831 14 360 0.0 0.0 0.00 0.00 0.00 69 1009.3